Time_in_sec,Mx,My,Mz
1314363187.96145272,-0.84774423,0.76597214,-0.40600798
1314363188.02048969,-0.84751374,0.76546681,-0.40679866
1314363188.06879115,-0.84773290,0.76762986,-0.40561587
1314363188.12046170,-0.84606874,0.76439160,-0.40347567
1314363188.16962194,-0.84885490,0.76496506,-0.40633392
1314363188.22146702,-0.84621012,0.76365256,-0.40590176
1314363188.27254128,-0.84835345,0.76417726,-0.40495262
1314363188.32100844,-0.84696692,0.76221949,-0.40270346
1314363188.37347531,-0.84800589,0.76714665,-0.40791687
1314363188.42180920,-0.84951603,0.76060164,-0.40418515
1314363188.46162128,-0.85134578,0.76116544,-0.40712264
1314363188.52145672,-0.84811270,0.76443613,-0.40547919
1314363188.57358074,-0.84735245,0.76456690,-0.40651327
1314363188.62149405,-0.84739256,0.76273739,-0.40286663
1314363188.66961551,-0.84778023,0.76329762,-0.40693238
1314363188.72060752,-0.84727746,0.76044178,-0.40351588
1314363188.76948380,-0.84783620,0.76226205,-0.40571609
1314363188.82047486,-0.84759897,0.76178020,-0.40866077
1314363188.87252474,-0.84841508,0.76163536,-0.40628344
1314363188.92079520,-0.84877276,0.75994480,-0.40332940
1314363188.97352648,-0.84925926,0.76177603,-0.40660259
1314363189.02147865,-0.84701002,0.76044011,-0.40363503
1314363189.06883001,-0.84866822,0.75984663,-0.40614998
1314363189.12155485,-0.84770328,0.75789523,-0.40405992
1314363189.16945291,-0.84744877,0.76330847,-0.40825966
1314363189.22075987,-0.84628463,0.75981146,-0.40533862
1314363189.27260303,-0.84928042,0.75945693,-0.40497074
1314363189.32150578,-0.84771138,0.75891829,-0.40406808
1314363189.37346458,-0.84854472,0.76061392,-0.40628323
1314363189.42146444,-0.84821153,0.75661659,-0.40354115
1314363189.47245979,-0.85004020,0.75807399,-0.40635064
1314363189.52061725,-0.84795076,0.75761294,-0.40137938
1314363189.57382941,-0.84879887,0.75997460,-0.40602386
1314363189.62170291,-0.84732872,0.75866401,-0.40458256
1314363189.67352796,-0.84802228,0.75908077,-0.40691465
1314363189.70952845,-0.84588182,0.75529009,-0.40151146
1314363189.76923227,-0.84515113,0.75912941,-0.40257517
1314363189.82146311,-0.84592366,0.75849026,-0.40180722
1314363189.86878061,-0.84855050,0.75944102,-0.40425518
1314363189.92059731,-0.84725165,0.75530457,-0.40145618
1314363189.96966076,-0.85000324,0.75959915,-0.40555218
1314363190.02117944,-0.84485680,0.75590569,-0.40037969
1314363190.06870151,-0.84758651,0.75761753,-0.40216616
1314363190.12162519,-0.84577215,0.75557399,-0.40419999
1314363190.17352438,-0.84667718,0.75838298,-0.40292710
1314363190.22147942,-0.84354371,0.75669295,-0.40354091
1314363190.27349472,-0.84810954,0.75700492,-0.40407673
1314363190.32060337,-0.84882486,0.75431180,-0.40261683
1314363190.36946130,-0.84909528,0.75571859,-0.40237379
1314363190.42064357,-0.84483361,0.75694752,-0.40213647
1314363190.46064925,-0.84795946,0.75751168,-0.40380257
1314363190.52071404,-0.84797549,0.75557470,-0.40203863
1314363190.56876397,-0.84708655,0.75787628,-0.40294698
1314363190.62151027,-0.84495717,0.75515878,-0.40213016
1314363190.66922450,-0.84699947,0.75824267,-0.40146369
1314363190.70878410,-0.84386045,0.75601602,-0.39978433
1314363190.76975703,-0.84595555,0.75632566,-0.40260062
1314363190.82061887,-0.84401989,0.75359571,-0.40044850
1314363190.86971855,-0.84774649,0.75644940,-0.40041634
1314363190.92146349,-0.84381551,0.75345367,-0.39935851
1314363190.96923327,-0.84743661,0.75505984,-0.40227285
1314363191.02146459,-0.84452182,0.75563574,-0.39941582
1314363191.06070971,-0.84669363,0.75736463,-0.40332431
1314363191.12047648,-0.84835339,0.75712973,-0.40355322
1314363191.17345190,-0.84785402,0.75659770,-0.40217394
1314363191.22172093,-0.84405243,0.75768793,-0.40048119
1314363191.26966071,-0.84640634,0.75707901,-0.40088207
1314363191.32072258,-0.84501159,0.75511962,-0.39849782
1314363191.36971188,-0.84742409,0.75863266,-0.40162584
1314363191.42146611,-0.84361309,0.75561041,-0.39801666
1314363191.46872282,-0.84826231,0.75596309,-0.40219280
1314363191.52065229,-0.84415758,0.75564033,-0.40020260
1314363191.57353806,-0.84544927,0.75888157,-0.40299445
1314363191.62158775,-0.84187448,0.75519174,-0.39656657
1314363191.66864014,-0.84618032,0.75935888,-0.39913589
1314363191.70956945,-0.84390122,0.75908834,-0.40007907
1314363191.76957965,-0.84414989,0.75586945,-0.39778042
1314363191.82146454,-0.84561759,0.75600559,-0.39705852
1314363191.86962247,-0.84548002,0.75998712,-0.39883080
1314363191.92064404,-0.84293783,0.75749546,-0.39570296
1314363191.96147275,-0.84555030,0.75869888,-0.39788273
1314363192.02067876,-0.84639901,0.75924826,-0.40049407
1314363192.06867266,-0.84390682,0.76097989,-0.39767015
1314363192.10944653,-0.84415799,0.75791395,-0.39766163
1314363192.16967964,-0.84034401,0.76053405,-0.39557576
1314363192.21349120,-0.84161019,0.76114017,-0.39710912
1314363192.26963067,-0.84251857,0.76331180,-0.39596602
1314363192.32150912,-0.84163928,0.76290900,-0.39510411
1314363192.36954832,-0.84304768,0.76551002,-0.39762920
1314363192.42147422,-0.84184647,0.76047248,-0.39428976
1314363192.46200943,-0.84469879,0.76072752,-0.39717555
1314363192.50869870,-0.84209579,0.76363665,-0.39691219
1314363192.56866503,-0.83859402,0.76279467,-0.39360660
1314363192.62065864,-0.83878964,0.76508093,-0.39201948
1314363192.66964555,-0.84074378,0.76704830,-0.39457080
1314363192.72056270,-0.83900023,0.76394731,-0.39336950
1314363192.76953006,-0.84244514,0.76500899,-0.39344215
1314363192.82162642,-0.83865327,0.76612586,-0.39417362
1314363192.86868978,-0.83963168,0.76700878,-0.39208269
1314363192.91859555,-0.83849561,0.76481879,-0.39173120
1314363192.96871758,-0.84104091,0.76667255,-0.39498907
1314363193.00948071,-0.83970505,0.76508278,-0.39126462
1314363193.06866169,-0.83864725,0.76569206,-0.38959235
1314363193.12157845,-0.83831424,0.76669937,-0.38850358
1314363193.17347503,-0.83925325,0.77227056,-0.39425460
1314363193.22157741,-0.83831048,0.76914948,-0.39040673
1314363193.26867175,-0.83975184,0.77096528,-0.39131159
1314363193.30946827,-0.83736432,0.76837564,-0.39075005
1314363193.36867523,-0.83680695,0.76862335,-0.39058504
1314363193.42150712,-0.83741385,0.77168018,-0.38889289
1314363193.46858764,-0.83912617,0.77377850,-0.39196974
1314363193.52150822,-0.83542615,0.77458322,-0.38745335
1314363193.56946468,-0.83948159,0.77558458,-0.39308101
1314363193.62223506,-0.83562589,0.77398306,-0.39082631
1314363193.66866136,-0.84085101,0.77468044,-0.39086461
1314363193.70981431,-0.83511305,0.77485299,-0.38905290
1314363193.76966095,-0.83464015,0.77764589,-0.38770017
1314363193.82150173,-0.83639514,0.77704614,-0.38954750
1314363193.86867499,-0.83744931,0.77922046,-0.38854775
1314363193.92167234,-0.83546937,0.77882993,-0.38991126
1314363193.96946120,-0.83758074,0.78118569,-0.39274389
1314363194.02055264,-0.83651292,0.77880675,-0.38674018
1314363194.06965995,-0.83829540,0.78268135,-0.38848811
1314363194.10951376,-0.83680981,0.78353846,-0.38652369
1314363194.16866660,-0.83358043,0.78300399,-0.38767919
1314363194.22144818,-0.83485228,0.78493983,-0.38803661
1314363194.26862979,-0.83850569,0.78665507,-0.38920337
1314363194.30863452,-0.83418125,0.78529352,-0.38598090
1314363194.36149740,-0.83539063,0.78657895,-0.38538736
1314363194.40948558,-0.83897519,0.79062897,-0.38966435
1314363194.46856856,-0.83458865,0.79055709,-0.38752508
1314363194.52147770,-0.83647138,0.79003519,-0.38466808
1314363194.57359481,-0.83958977,0.79243511,-0.39052132
1314363194.61347938,-0.83735186,0.79046297,-0.38781890
1314363194.67347550,-0.83526629,0.79222292,-0.38717291
1314363194.72147226,-0.83646631,0.79644334,-0.38606238
1314363194.76143670,-0.83815503,0.79833132,-0.39331004
1314363194.80864024,-0.84017628,0.79395580,-0.38868177
1314363194.86858773,-0.83698022,0.79467982,-0.38796374
1314363194.92050600,-0.83763456,0.79943037,-0.38911447
1314363194.97242069,-0.84013128,0.80150545,-0.38927454
1314363195.02147245,-0.83650136,0.80068851,-0.38838518
1314363195.06057763,-0.83980888,0.80368870,-0.39048404
1314363195.12063456,-0.84062248,0.80203593,-0.39051867
1314363195.16947079,-0.84227294,0.80371451,-0.39035752
1314363195.22063184,-0.83685088,0.80673188,-0.39114362
1314363195.26858306,-0.84023947,0.80791044,-0.39027146
1314363195.32146382,-0.83686632,0.80694067,-0.38683769
1314363195.36957812,-0.84076649,0.80883086,-0.39205915
1314363195.42147470,-0.83848590,0.80955672,-0.39058629
1314363195.46055627,-0.84051436,0.81074744,-0.39219362
1314363195.52058816,-0.84350502,0.81077498,-0.39169368
1314363195.56946349,-0.84290326,0.81540513,-0.39479035
1314363195.60861897,-0.83940005,0.81351662,-0.38932261
1314363195.66860008,-0.84091216,0.81496292,-0.39144054
1314363195.70946956,-0.84077364,0.81779504,-0.39333874
1314363195.76863241,-0.84354097,0.81719095,-0.39376357
1314363195.82145572,-0.84113079,0.81689531,-0.39254481
1314363195.86144829,-0.84517127,0.82131654,-0.39523533
1314363195.90859556,-0.84462309,0.82169372,-0.39520645
1314363195.96144772,-0.84156483,0.82241935,-0.39449641
1314363196.02054167,-0.84685284,0.82366431,-0.39777374
1314363196.06863475,-0.84767956,0.82469547,-0.39769471
1314363196.12048149,-0.84465271,0.82335931,-0.39548996
1314363196.16863084,-0.84876359,0.82444942,-0.39748630
1314363196.21072364,-0.84684497,0.82560289,-0.39967281
1314363196.26049447,-0.84618837,0.82468247,-0.39801225
1314363196.30857491,-0.84923327,0.82535881,-0.39832816
1314363196.36192727,-0.84766418,0.82584167,-0.39729851
1314363196.42055440,-0.84974790,0.82780910,-0.39972273
1314363196.46161032,-0.85096872,0.82641530,-0.39964825
1314363196.52160811,-0.85038608,0.82949209,-0.40098405
1314363196.56854701,-0.85126197,0.83053267,-0.40171573
1314363196.62152314,-0.84639919,0.82888693,-0.39644045
1314363196.66955805,-0.85148638,0.83027071,-0.40091893
1314363196.72059751,-0.84686434,0.82803261,-0.39969221
1314363196.76170611,-0.85148549,0.82809985,-0.40117180
1314363196.82152867,-0.85151309,0.82848817,-0.40158024
1314363196.86861706,-0.85173488,0.83011627,-0.39823940
1314363196.92049146,-0.84812188,0.82919961,-0.39990839
1314363196.96863008,-0.85279161,0.83142203,-0.39965674
1314363197.02148890,-0.84887093,0.82766217,-0.39886305
1314363197.06855869,-0.85146701,0.82886243,-0.40077257
1314363197.12101388,-0.84780079,0.82877988,-0.39692464
1314363197.16951489,-0.84958470,0.83267945,-0.40096167
1314363197.22148776,-0.84692526,0.82865798,-0.39835405
1314363197.26859784,-0.84812343,0.82955819,-0.39762235
1314363197.31238365,-0.84653097,0.82709980,-0.39656925
1314363197.36958790,-0.84382915,0.82873791,-0.39709842
1314363197.42149425,-0.84406531,0.83011335,-0.39402580
1314363197.46107459,-0.84735852,0.83132321,-0.39611036
1314363197.50850701,-0.84712094,0.82992274,-0.39689389
1314363197.56945682,-0.84442544,0.82959723,-0.39323494
1314363197.62060976,-0.84418088,0.83230615,-0.39566463
1314363197.66194916,-0.84572190,0.83153778,-0.39399773
1314363197.71081853,-0.84513372,0.83305651,-0.39316732
1314363197.76050663,-0.84118319,0.83273846,-0.39145532
1314363197.82146287,-0.84302717,0.83407104,-0.39453405
1314363197.87254763,-0.84482437,0.83189762,-0.39273676
1314363197.92050934,-0.84163314,0.82927793,-0.39024359
1314363197.96977520,-0.84308970,0.83370000,-0.39561197
1314363198.02328157,-0.84234464,0.83005643,-0.39055988
1314363198.06858206,-0.84199882,0.83031994,-0.39161897
1314363198.12180710,-0.83927208,0.83001322,-0.38970861
1314363198.16951752,-0.84308732,0.83048260,-0.39370272
1314363198.22140932,-0.83816153,0.82897729,-0.38963655
1314363198.26853609,-0.84179634,0.83349806,-0.39015016
1314363198.32106757,-0.83907074,0.83025479,-0.38862169
1314363198.36949754,-0.84307468,0.82905084,-0.39140239
1314363198.42050338,-0.83849549,0.82911938,-0.39059940
1314363198.46848965,-0.84349716,0.83122808,-0.39130858
1314363198.52050543,-0.84003639,0.83039391,-0.38867861
1314363198.56957746,-0.84309089,0.83211839,-0.39129177
1314363198.62147570,-0.83968443,0.83091164,-0.38960460
1314363198.66849923,-0.84107709,0.83261520,-0.39198682
1314363198.72047138,-0.83871162,0.83089876,-0.38941357
1314363198.76948524,-0.84162313,0.83402520,-0.39175975
1314363198.82048726,-0.84046161,0.82999319,-0.38668063
1314363198.86952472,-0.84257102,0.83107173,-0.38963816
1314363198.92049384,-0.83952093,0.83179891,-0.38906327
1314363198.96853018,-0.84070987,0.83359116,-0.38806844
1314363199.02160406,-0.83848363,0.83190143,-0.38779229
1314363199.06955886,-0.84255451,0.83311152,-0.38911402
1314363199.12052226,-0.83841443,0.83229601,-0.38886833
1314363199.17352557,-0.84185421,0.83373976,-0.38880897
1314363199.22143960,-0.83857924,0.83347672,-0.39144486
1314363199.26942754,-0.84495759,0.83251202,-0.39032564
1314363199.32321620,-0.84103471,0.83156085,-0.38914904
1314363199.36941648,-0.84273946,0.83286679,-0.38993070
1314363199.42149305,-0.83936465,0.83255988,-0.38865602
1314363199.46847057,-0.84469342,0.83222115,-0.39162785
1314363199.52145290,-0.83926624,0.83097422,-0.38834170
1314363199.56945705,-0.84352303,0.83398330,-0.39022672
1314363199.62234950,-0.83902848,0.83161688,-0.38887146
1314363199.66847610,-0.84297949,0.83203787,-0.38829526
1314363199.71133089,-0.83821422,0.83062249,-0.38803634
1314363199.76850772,-0.83886731,0.83228362,-0.38727880
1314363199.82150912,-0.83832330,0.83215088,-0.38738096
1314363199.86955786,-0.84395206,0.83249289,-0.38959414
1314363199.92053556,-0.83881247,0.83242553,-0.38862306
1314363199.96948314,-0.84310269,0.83273435,-0.38914290
1314363200.02047563,-0.84009206,0.83358759,-0.39258385
1314363200.06852841,-0.84330219,0.83383811,-0.38886616
1314363200.10974479,-0.83932155,0.83175111,-0.38915876
1314363200.16849422,-0.84124964,0.83243674,-0.39143017
1314363200.22147465,-0.84152055,0.83509630,-0.38877252
1314363200.26939130,-0.84470147,0.83289558,-0.39058298
1314363200.32047319,-0.84146762,0.83093095,-0.38957328
1314363200.36956859,-0.84515202,0.83535838,-0.39318568
1314363200.41852665,-0.84308058,0.83288258,-0.39102766
1314363200.46852708,-0.84670341,0.83178288,-0.39203680
1314363200.52157974,-0.84398586,0.83195412,-0.39131555
1314363200.56950784,-0.84706563,0.83470547,-0.39420784
1314363200.62150598,-0.84443057,0.83160657,-0.39416671
1314363200.66848350,-0.84865052,0.83409774,-0.39550701
1314363200.72179914,-0.84520113,0.83275485,-0.39314258
1314363200.77350998,-0.84876174,0.83281708,-0.39523447
1314363200.82054639,-0.84631252,0.83266646,-0.39563024
1314363200.86940217,-0.85048336,0.83310479,-0.39641359
1314363200.92137384,-0.84566486,0.83289701,-0.39397851
1314363200.96852183,-0.85104191,0.83196312,-0.39670667
1314363201.02148056,-0.84539956,0.83269954,-0.39533418
1314363201.06933737,-0.84969848,0.83290708,-0.39827722
1314363201.12155271,-0.84639084,0.83194983,-0.39592445
1314363201.17050529,-0.84874851,0.83560479,-0.40039673
1314363201.22150850,-0.84584475,0.83258277,-0.39589763
1314363201.26943827,-0.85167944,0.83240402,-0.39704168
1314363201.31967306,-0.84711570,0.83234775,-0.39650792
1314363201.36962605,-0.85217631,0.83244956,-0.40070596
1314363201.42149520,-0.84781706,0.83082592,-0.39694098
1314363201.46834636,-0.85262090,0.83345711,-0.39885435
1314363201.52150321,-0.84935945,0.83110410,-0.39743623
1314363201.56945968,-0.85322160,0.83254439,-0.40087721
1314363201.62151575,-0.84930837,0.83379102,-0.40187213
1314363201.66852736,-0.85464031,0.83335936,-0.40379345
1314363201.70944476,-0.84945291,0.83274734,-0.39985263
1314363201.76853585,-0.84840518,0.83157074,-0.39857113
1314363201.82146502,-0.85040283,0.83279037,-0.39858636
1314363201.86856699,-0.85333604,0.83247340,-0.40171570
1314363201.92282486,-0.84960228,0.83110106,-0.39691171
1314363201.96934056,-0.85165054,0.83564019,-0.40069956
1314363202.01828289,-0.84824574,0.83172750,-0.39710718
1314363202.06908512,-0.85209447,0.83039093,-0.39960864
1314363202.12057877,-0.84735996,0.83236980,-0.39827251
1314363202.16853356,-0.85122037,0.83369207,-0.39837119
1314363202.22166276,-0.84608597,0.83222115,-0.39765912
1314363202.26850343,-0.85126346,0.83191270,-0.39930275
1314363202.32048106,-0.84707445,0.83256072,-0.39688554
1314363202.36944938,-0.84967279,0.83207655,-0.39676294
1314363202.41894269,-0.84334099,0.83496642,-0.39843827
1314363202.46852708,-0.84927577,0.83105314,-0.39713627
1314363202.52131367,-0.84657699,0.83126265,-0.39563501
1314363202.56863713,-0.85180390,0.83083564,-0.39808896
1314363202.62146497,-0.84561992,0.83192605,-0.39453331
1314363202.66862535,-0.85077226,0.83138222,-0.39805859
1314363202.72142911,-0.84666067,0.83312589,-0.39796847
1314363202.76947975,-0.85101026,0.83472288,-0.39930925
1314363202.82210779,-0.84680897,0.83065391,-0.39391935
1314363202.87049341,-0.84972090,0.83297974,-0.39744586
1314363202.92048407,-0.84773451,0.83079994,-0.39893052
1314363202.96949005,-0.85120487,0.83186662,-0.39940870
1314363203.02144289,-0.85011506,0.83157599,-0.39732346
1314363203.06988597,-0.84932280,0.83285016,-0.39769119
1314363203.12060189,-0.84762174,0.83103383,-0.39704040
1314363203.16954231,-0.84987515,0.83298451,-0.39772415
1314363203.22036576,-0.84773481,0.83376229,-0.40083817
1314363203.26851940,-0.85225320,0.83225226,-0.39852962
1314363203.32047534,-0.84750336,0.83141905,-0.39730579
1314363203.36861062,-0.85345012,0.83279401,-0.40008429
1314363203.42149472,-0.84871310,0.83134949,-0.40141529
1314363203.46855712,-0.85312170,0.83216691,-0.40154192
1314363203.51933670,-0.85018611,0.83314699,-0.40057141
1314363203.56946397,-0.85306257,0.83486247,-0.40250146
1314363203.61932421,-0.85068369,0.83036858,-0.39898831
1314363203.67132449,-0.85384732,0.83259988,-0.40107307
1314363203.71348190,-0.84751874,0.83176178,-0.40096986
1314363203.77259970,-0.84917390,0.83213961,-0.39877963
1314363203.82146549,-0.84848601,0.83123797,-0.39886770
1314363203.86946106,-0.85125935,0.83242267,-0.39917171
1314363203.92060590,-0.84900522,0.83066773,-0.39725238
1314363203.97348094,-0.85285944,0.83076137,-0.40192017
1314363204.02047515,-0.84946877,0.83354151,-0.40228352
1314363204.06951284,-0.85282409,0.83060211,-0.39908889
1314363204.12125897,-0.84782928,0.83053786,-0.39826068
1314363204.16939259,-0.85210115,0.83045983,-0.39850733
1314363204.22148561,-0.84524935,0.83263636,-0.39395249
1314363204.26952958,-0.84857029,0.83035380,-0.39237684
1314363204.32060194,-0.84132570,0.82895333,-0.38858035
1314363204.36996508,-0.84176064,0.83062261,-0.38875276
1314363204.42147613,-0.83754396,0.82712096,-0.38420138
1314363204.46950030,-0.84056932,0.82945353,-0.38399005
1314363204.52124190,-0.83423102,0.82961023,-0.38133568
1314363204.56921959,-0.83694595,0.83167750,-0.38056588
1314363204.62147450,-0.83336794,0.82931346,-0.37845615
1314363204.66847610,-0.83378643,0.82995766,-0.37848520
1314363204.72045994,-0.82899380,0.82771176,-0.37671000
1314363204.76947880,-0.83438236,0.82752186,-0.37728962
1314363204.81906962,-0.82892251,0.82887208,-0.37765706
1314363204.87060022,-0.83201677,0.82784837,-0.37446246
1314363204.92154765,-0.82818294,0.82866722,-0.37569755
1314363204.96847558,-0.83290046,0.83074659,-0.37396619
1314363205.02144718,-0.82586282,0.82964122,-0.37355059
1314363205.06919718,-0.83089709,0.82968819,-0.37276495
1314363205.12149668,-0.82686406,0.82925153,-0.37198961
1314363205.16995668,-0.82997102,0.83249414,-0.37300181
1314363205.21984243,-0.82684046,0.82937473,-0.37158516
1314363205.26979518,-0.82860923,0.82941604,-0.37357318
1314363205.32120275,-0.82497698,0.82857376,-0.37039396
1314363205.36860156,-0.83016068,0.83094829,-0.37178916
1314363205.42146611,-0.82389259,0.83086336,-0.37034842
1314363205.46849537,-0.82976669,0.83030862,-0.37216553
1314363205.52058816,-0.82494205,0.83035517,-0.36959735
1314363205.57357812,-0.82743323,0.83166325,-0.36975136
1314363205.62151217,-0.82180250,0.83211201,-0.36969820
1314363205.66860414,-0.82541341,0.83060169,-0.36827978
1314363205.70950246,-0.82285708,0.83122170,-0.36907920
1314363205.76946568,-0.82069945,0.83015853,-0.36759967
1314363205.82146144,-0.82281470,0.82812357,-0.36649475
